When you browse on this site, cookies collect data to enhance your experience and personalize the content and advertising you see.
Visit our Privacy Policy to learn more. By continuing to use the site, you agree to this use of cookies and data.

Previsão horária em Ababkovo

Hoje, 26 Setembro, Sábado

Tempo Temperatura Precipitação Vento Pressão Humidade
00:00 +13°C° 0 mm 2 m/s 741 mmHg 86%
01:00 +13°C° 0 mm 2 m/s 741 mmHg 87%
02:00 +13°C° 0 mm 2 m/s 741 mmHg 87%
03:00 +12°C° 0 mm 2 m/s 741 mmHg 86%
04:00 +12°C° 0 mm 2 m/s 741 mmHg 85%
05:00 +10°C° 0 mm 2 m/s 741 mmHg 83%
06:00 +11°C° 0 mm 3 m/s 741 mmHg 80%
07:00 +12°C° 0 mm 3 m/s 741 mmHg 76%
08:00 +13°C° 0 mm 3 m/s 742 mmHg 71%
09:00 +15°C° 0 mm 4 m/s 742 mmHg 67%
10:00 +17°C° 0 mm 4 m/s 742 mmHg 63%
11:00 +19°C° 0 mm 4 m/s 742 mmHg 59%
12:00 +19°C° 0 mm 4 m/s 742 mmHg 58%
13:00 +19°C° 0 mm 4 m/s 742 mmHg 57%
14:00 +20°C° 0 mm 4 m/s 742 mmHg 56%
15:00 +19°C° 0 mm 4 m/s 742 mmHg 62%
16:00 +18°C° 0 mm 3 m/s 742 mmHg 67%
17:00 +16°C° 0 mm 3 m/s 742 mmHg 73%
18:00 +16°C° 0 mm 3 m/s 743 mmHg 75%
19:00 +14°C° 0 mm 3 m/s 743 mmHg 76%
20:00 +13°C° 0 mm 3 m/s 743 mmHg 78%
21:00 +12°C° 0 mm 3 m/s 743 mmHg 79%
22:00 +12°C° 0 mm 3 m/s 743 mmHg 80%
23:00 +11°C° 0 mm 3 m/s 743 mmHg 81%

Amanhã, 27 Setembro, Domingo

Tempo Temperatura Precipitação Vento Pressão Humidade
00:00 +11°C° 0 mm 3 m/s 744 mmHg 80%
01:00 +12°C° 0 mm 3 m/s 744 mmHg 80%
02:00 +12°C° 0 mm 3 m/s 744 mmHg 79%
03:00 +11°C° 0 mm 3 m/s 744 mmHg 81%
04:00 +11°C° 0 mm 3 m/s 744 mmHg 82%
05:00 +11°C° 0 mm 3 m/s 744 mmHg 84%
06:00 +12°C° 0 mm 3 m/s 744 mmHg 79%
07:00 +13°C° 0 mm 3 m/s 744 mmHg 75%
08:00 +13°C° 0 mm 4 m/s 745 mmHg 71%
09:00 +15°C° 0 mm 4 m/s 745 mmHg 65%
10:00 +17°C° 0 mm 4 m/s 745 mmHg 60%
11:00 +18°C° 0 mm 4 m/s 745 mmHg 55%
12:00 +18°C° 0 mm 4 m/s 745 mmHg 53%
13:00 +19°C° 0 mm 4 m/s 745 mmHg 50%
14:00 +19°C° 0 mm 4 m/s 745 mmHg 48%
15:00 +18°C° 0 mm 4 m/s 745 mmHg 51%
16:00 +15°C° 0 mm 4 m/s 744 mmHg 55%
17:00 +14°C° 0 mm 3 m/s 744 mmHg 59%
18:00 +13°C° 0 mm 3 m/s 744 mmHg 61%
19:00 +12°C° 0 mm 3 m/s 744 mmHg 63%
20:00 +11°C° 0 mm 4 m/s 744 mmHg 65%
21:00 +11°C° 0 mm 3 m/s 745 mmHg 65%
22:00 +11°C° 0 mm 3 m/s 745 mmHg 66%
23:00 +11°C° 0 mm 3 m/s 745 mmHg 66%

Depois de amanhã, 28 Setembro, Segunda-feira

Tempo Temperatura Precipitação Vento Pressão Humidade
00:00 +11°C° 0 mm 3 m/s 745 mmHg 66%
01:00 +10°C° 0 mm 3 m/s 744 mmHg 66%
02:00 +10°C° 0 mm 3 m/s 744 mmHg 67%
03:00 +10°C° 0 mm 3 m/s 744 mmHg 67%
04:00 +10°C° 0 mm 3 m/s 744 mmHg 67%
05:00 +10°C° 0 mm 3 m/s 744 mmHg 68%
06:00 +10°C° 0 mm 3 m/s 744 mmHg 67%
07:00 +10°C° 0 mm 4 m/s 744 mmHg 66%
08:00 +11°C° 0 mm 4 m/s 744 mmHg 65%
09:00 +10°C° 0.2 mm 4 m/s 744 mmHg 72%
10:00 +10°C° 0.2 mm 4 m/s 744 mmHg 79%
11:00 +10°C° 0.2 mm 4 m/s 744 mmHg 86%
12:00 +10°C° 0 mm 4 m/s 745 mmHg 86%
13:00 +11°C° 0 mm 3 m/s 745 mmHg 86%
14:00 +11°C° 0 mm 3 m/s 745 mmHg 87%
15:00 +11°C° 0 mm 3 m/s 745 mmHg 88%
16:00 +11°C° 0 mm 3 m/s 745 mmHg 90%
17:00 +12°C° 0 mm 3 m/s 745 mmHg 91%
18:00 +11°C° 0 mm 3 m/s 746 mmHg 93%
19:00 +11°C° 0 mm 3 m/s 746 mmHg 94%
20:00 +10°C° 0 mm 2 m/s 746 mmHg 96%
21:00 +10°C° 0 mm 2 m/s 746 mmHg 96%
22:00 +10°C° 0 mm 2 m/s 746 mmHg 97%
23:00 +11°C° 0 mm 1 m/s 746 mmHg 97%

29 Setembro, Terça-feira

Tempo Temperatura Precipitação Vento Pressão Humidade
00:00 +11°C° 0 mm 1 m/s 746 mmHg 97%
01:00 +11°C° 0 mm 1 m/s 746 mmHg 98%
02:00 +11°C° 0 mm 1 m/s 746 mmHg 98%
03:00 +10°C° 0 mm 1 m/s 746 mmHg 98%
04:00 +9°C° 0 mm 2 m/s 746 mmHg 98%
05:00 +9°C° 0 mm 2 m/s 746 mmHg 98%
06:00 +10°C° 0 mm 2 m/s 746 mmHg 95%
07:00 +10°C° 0 mm 2 m/s 745 mmHg 92%
08:00 +12°C° 0 mm 2 m/s 745 mmHg 90%
09:00 +13°C° 0 mm 2 m/s 745 mmHg 85%
10:00 +14°C° 0 mm 2 m/s 745 mmHg 80%
11:00 +14°C° 0 mm 3 m/s 745 mmHg 76%
12:00 +14°C° 0 mm 3 m/s 745 mmHg 73%
13:00 +14°C° 0 mm 3 m/s 745 mmHg 71%
14:00 +14°C° 0 mm 3 m/s 744 mmHg 68%
15:00 +13°C° 0 mm 3 m/s 744 mmHg 70%
16:00 +12°C° 0 mm 3 m/s 744 mmHg 72%
17:00 +12°C° 0 mm 3 m/s 744 mmHg 74%
18:00 +11°C° 0 mm 3 m/s 744 mmHg 74%
19:00 +11°C° 0 mm 3 m/s 744 mmHg 75%
20:00 +12°C° 0 mm 2 m/s 744 mmHg 76%
21:00 +10°C° 0 mm 2 m/s 744 mmHg 74%
22:00 +10°C° 0 mm 2 m/s 744 mmHg 71%
23:00 +10°C° 0 mm 2 m/s 744 mmHg 69%

30 Setembro, Quarta-feira

Tempo Temperatura Precipitação Vento Pressão Humidade
00:00 +9°C° 0 mm 2 m/s 744 mmHg 70%
01:00 +8°C° 0 mm 2 m/s 744 mmHg 72%
02:00 +8°C° 0 mm 2 m/s 744 mmHg 74%
03:00 +7°C° 0 mm 2 m/s 744 mmHg 74%
04:00 +7°C° 0 mm 2 m/s 744 mmHg 75%
05:00 +6°C° 0 mm 2 m/s 744 mmHg 76%
06:00 +7°C° 0 mm 3 m/s 744 mmHg 72%
07:00 +8°C° 0 mm 3 m/s 744 mmHg 68%
08:00 +9°C° 0 mm 3 m/s 744 mmHg 64%
09:00 +10°C° 0 mm 3 m/s 744 mmHg 62%
10:00 +11°C° 0 mm 3 m/s 744 mmHg 59%
11:00 +12°C° 0 mm 3 m/s 744 mmHg 56%
12:00 +13°C° 0 mm 3 m/s 744 mmHg 55%
13:00 +14°C° 0 mm 3 m/s 744 mmHg 53%
14:00 +15°C° 0 mm 4 m/s 744 mmHg 52%
15:00 +14°C° 0 mm 3 m/s 744 mmHg 57%
16:00 +13°C° 0 mm 3 m/s 744 mmHg 62%
17:00 +12°C° 0 mm 3 m/s 744 mmHg 67%
18:00 +11°C° 0 mm 3 m/s 744 mmHg 67%
19:00 +10°C° 0 mm 3 m/s 744 mmHg 67%
20:00 +10°C° 0 mm 3 m/s 744 mmHg 67%
21:00 +9°C° 0 mm 3 m/s 744 mmHg 69%
22:00 +9°C° 0 mm 3 m/s 744 mmHg 72%
23:00 +8°C° 0 mm 3 m/s 744 mmHg 74%

1 Outubro, Quinta-feira

Tempo Temperatura Precipitação Vento Pressão Humidade
00:00 +8°C° 0 mm 3 m/s 744 mmHg 76%
01:00 +8°C° 0 mm 3 m/s 744 mmHg 78%
02:00 +8°C° 0 mm 3 m/s 744 mmHg 80%
03:00 +8°C° 0 mm 3 m/s 744 mmHg 81%
04:00 +7°C° 0 mm 3 m/s 744 mmHg 81%
05:00 +7°C° 0 mm 3 m/s 744 mmHg 82%
06:00 +8°C° 0 mm 3 m/s 744 mmHg 78%
07:00 +8°C° 0 mm 4 m/s 744 mmHg 75%
08:00 +10°C° 0 mm 4 m/s 744 mmHg 71%
09:00 +11°C° 0 mm 4 m/s 744 mmHg 66%
10:00 +12°C° 0 mm 4 m/s 744 mmHg 61%
11:00 +14°C° 0 mm 5 m/s 744 mmHg 56%
12:00 +15°C° 0 mm 5 m/s 744 mmHg 53%
13:00 +15°C° 0 mm 5 m/s 743 mmHg 51%
14:00 +16°C° 0 mm 5 m/s 743 mmHg 48%
15:00 +15°C° 0 mm 5 m/s 743 mmHg 53%
16:00 +14°C° 0 mm 4 m/s 743 mmHg 58%
17:00 +13°C° 0 mm 3 m/s 743 mmHg 62%
18:00 +12°C° 0 mm 3 m/s 744 mmHg 64%
19:00 +12°C° 0 mm 4 m/s 744 mmHg 65%
20:00 +11°C° 0 mm 4 m/s 744 mmHg 66%
21:00 +11°C° 0 mm 4 m/s 744 mmHg 66%
22:00 +11°C° 0 mm 4 m/s 744 mmHg 67%
23:00 +10°C° 0 mm 4 m/s 744 mmHg 68%
Mostrar mais